KAY350 KOPF-EGCC

Flight info

Callsign KAY350
Flight time 7h 8m
Altitude 39000
Route FOLZZ3 ALYRA DCT CARPX M202 UKOKA/M083F390 M202 ITCHE/M083F410 M202 LOMPI/N0487F410 DCT YYT DCT JOOPY/M084F400 DCT 49N050W 51N040W 53N030W 54N020W DCT DOGAL DCT BEXET/N0480F410 DCT BOFUM Q37 MALUD
Aircraft A359/H-SDE2E3GHIJ3J4J5LM1ORWXY/LB1D1

Departure

Time 2026-05-04 07:38
Airport Miami-Opa Locka Executive Airport (KOPF)

Arrival

Time 2026-05-04 14:46
Airport Manchester Airport (EGCC)
Time Latitude Longitude Altitude Speed Heading
2026-05-04 07:29 25.91118 -80.26635 27 ft 0 kts 110°
2026-05-04 07:33 25.91181 -80.26605 26 ft 17 kts 269°
2026-05-04 07:33 25.91172 -80.26829 28 ft 40 kts 267°
2026-05-04 07:33 25.91159 -80.27139 29 ft 40 kts 267°
2026-05-04 07:33 25.91142 -80.27438 28 ft 43 kts 266°
2026-05-04 07:34 25.91123 -80.27820 24 ft 50 kts 265°
2026-05-04 07:34 25.91100 -80.28198 24 ft 49 kts 266°
2026-05-04 07:34 25.91083 -80.28568 28 ft 47 kts 268°
2026-05-04 07:34 25.91124 -80.28768 29 ft 26 kts 286°
2026-05-04 07:35 25.91211 -80.28851 29 ft 15 kts 355°
2026-05-04 07:35 25.91262 -80.28831 29 ft 4 kts 64°
2026-05-04 07:35 25.91265 -80.28809 29 ft 0 kts 83°
2026-05-04 07:36 25.91278 -80.28610 27 ft 71 kts 87°
2026-05-04 07:36 25.91320 -80.27705 25 ft 160 kts 87°
2026-05-04 07:38 25.92174 -80.15867 6569 ft 270 kts 85°
2026-05-04 07:38 25.92324 -80.13732 7508 ft 285 kts 85°
2026-05-04 07:38 25.92480 -80.11490 8440 ft 297 kts 85°
2026-05-04 07:38 25.92643 -80.09135 9271 ft 315 kts 85°
2026-05-04 07:39 25.92816 -80.06650 10023 ft 331 kts 84°
2026-05-04 07:39 25.92935 -80.04934 10484 ft 340 kts 85°
2026-05-04 07:39 25.93119 -80.02264 11192 ft 353 kts 85°
2026-05-04 07:39 25.93308 -79.99501 11904 ft 364 kts 86°
2026-05-04 07:40 25.93502 -79.96663 12651 ft 374 kts 86°
2026-05-04 07:40 25.93764 -79.93757 13411 ft 383 kts 80°
2026-05-04 07:40 25.94573 -79.90920 14132 ft 390 kts 62°
2026-05-04 07:40 25.95936 -79.88290 14830 ft 396 kts 55°
2026-05-04 07:41 25.97446 -79.85702 15540 ft 403 kts 54°
2026-05-04 07:41 25.99007 -79.83087 16268 ft 409 kts 54°
2026-05-04 07:41 26.00601 -79.80430 17007 ft 415 kts 54°
2026-05-04 07:41 26.02212 -79.77748 17767 ft 419 kts 54°
2026-05-04 07:42 26.03841 -79.75035 18509 ft 423 kts 54°
2026-05-04 07:42 26.05481 -79.72305 19175 ft 426 kts 54°
2026-05-04 07:42 26.07133 -79.69554 19790 ft 431 kts 54°
2026-05-04 07:42 26.08817 -79.66749 20260 ft 440 kts 54°
2026-05-04 07:43 26.10531 -79.63892 20738 ft 448 kts 54°
2026-05-04 07:43 26.12285 -79.61046 21217 ft 455 kts 52°
2026-05-04 07:43 26.14136 -79.58154 21720 ft 462 kts 52°
2026-05-04 07:43 26.16013 -79.55226 22199 ft 468 kts 52°
2026-05-04 07:44 26.17911 -79.52253 22723 ft 473 kts 52°
2026-05-04 07:44 26.19825 -79.49246 23273 ft 478 kts 53°
2026-05-04 07:44 26.21756 -79.46206 23762 ft 483 kts 53°
2026-05-04 07:44 26.23697 -79.43145 24202 ft 487 kts 52°
2026-05-04 07:45 26.25657 -79.40050 24628 ft 490 kts 53°
2026-05-04 07:45 26.27687 -79.36978 25083 ft 492 kts 48°
2026-05-04 07:45 26.30081 -79.34274 25541 ft 489 kts 35°
2026-05-04 07:45 26.32835 -79.32079 26027 ft 487 kts 28°
2026-05-04 07:46 26.35685 -79.30046 26504 ft 488 kts 27°
2026-05-04 07:46 26.38569 -79.28010 26990 ft 490 kts 27°
2026-05-04 07:46 26.41463 -79.25962 27382 ft 496 kts 27°
2026-05-04 07:46 26.44395 -79.23882 27640 ft 503 kts 27°
2026-05-04 07:47 26.47368 -79.21768 27922 ft 511 kts 27°
2026-05-04 07:47 26.50383 -79.19620 28183 ft 518 kts 27°
2026-05-04 07:47 26.53441 -79.17438 28441 ft 525 kts 27°
2026-05-04 07:49 26.75765 -79.01449 30280 ft 562 kts 27°
2026-05-04 07:49 26.79065 -78.99078 30511 ft 565 kts 27°
2026-05-04 07:49 26.82385 -78.96692 30746 ft 569 kts 27°
2026-05-04 07:50 26.85722 -78.94291 30986 ft 572 kts 27°
2026-05-04 07:50 26.89074 -78.91878 31224 ft 574 kts 27°
2026-05-04 07:50 26.92443 -78.89451 31464 ft 576 kts 27°
2026-05-04 07:50 26.95817 -78.87019 31709 ft 578 kts 27°
2026-05-04 07:51 26.99203 -78.84575 31957 ft 579 kts 27°
2026-05-04 07:51 27.02593 -78.82128 32203 ft 579 kts 27°
2026-05-04 07:51 27.05983 -78.79679 32512 ft 580 kts 27°
2026-05-04 07:51 27.09379 -78.77224 32771 ft 581 kts 27°
2026-05-04 07:52 27.12777 -78.74766 33004 ft 581 kts 27°
2026-05-04 07:52 27.16183 -78.72301 33273 ft 582 kts 27°
2026-05-04 07:52 27.19583 -78.69838 33546 ft 582 kts 27°
2026-05-04 07:52 27.22940 -78.67404 33772 ft 582 kts 28°
2026-05-04 07:53 27.26415 -78.65112 34030 ft 576 kts 20°
2026-05-04 07:54 27.52918 -78.60162 35659 ft 549 kts 357°
2026-05-04 07:55 27.56716 -78.59670 35902 ft 548 kts 357°
2026-05-04 07:55 27.60505 -78.59178 36214 ft 548 kts 356°
2026-05-04 07:55 27.64287 -78.58686 36459 ft 546 kts 356°
2026-05-04 07:55 27.68058 -78.58195 36707 ft 545 kts 356°
2026-05-04 07:56 27.71821 -78.57705 36964 ft 544 kts 355°
2026-05-04 07:56 27.75578 -78.57216 37219 ft 543 kts 355°
2026-05-04 07:56 27.79327 -78.56727 37479 ft 542 kts 355°
2026-05-04 07:56 27.83068 -78.56238 37741 ft 540 kts 355°
2026-05-04 07:57 27.86798 -78.55751 38014 ft 539 kts 355°
2026-05-04 07:57 27.90516 -78.55264 38348 ft 537 kts 354°
2026-05-04 07:57 27.94225 -78.54778 38632 ft 536 kts 354°
2026-05-04 07:57 27.97922 -78.54294 38876 ft 534 kts 354°
2026-05-04 07:58 28.01615 -78.53811 39002 ft 535 kts 354°
2026-05-04 07:58 28.05323 -78.53329 39016 ft 538 kts 354°
2026-05-04 07:58 28.12811 -78.52352 39019 ft 544 kts 354°
2026-05-04 07:59 28.20362 -78.51360 39054 ft 548 kts 354°
2026-05-04 07:59 28.27900 -78.50364 39029 ft 548 kts 354°
2026-05-04 08:00 28.35479 -78.49363 39037 ft 548 kts 354°
2026-05-04 08:02 28.65837 -78.45348 39051 ft 550 kts 354°
2026-05-04 08:02 28.73443 -78.44338 39050 ft 550 kts 354°
2026-05-04 08:03 28.81009 -78.43334 39062 ft 552 kts 355°
2026-05-04 08:03 28.88645 -78.42318 39064 ft 553 kts 355°
2026-05-04 08:04 28.96286 -78.41298 39061 ft 553 kts 355°
2026-05-04 08:04 29.03934 -78.40276 39139 ft 553 kts 355°
2026-05-04 08:05 29.11586 -78.39253 39072 ft 554 kts 355°
2026-05-04 08:05 29.19234 -78.38229 39072 ft 554 kts 355°
2026-05-04 08:06 29.26888 -78.37202 39075 ft 554 kts 355°
2026-05-04 08:06 29.34545 -78.36174 39101 ft 554 kts 356°
2026-05-04 08:08 29.60700 -78.26816 39131 ft 592 kts 22°
2026-05-04 08:08 29.64276 -78.24472 39089 ft 591 kts 23°
2026-05-04 08:11 29.96473 -78.03678 39112 ft 587 kts 22°
2026-05-04 08:11 30.07165 -77.96792 39115 ft 586 kts 22°
2026-05-04 08:12 30.14298 -77.92187 39112 ft 589 kts 22°
2026-05-04 08:12 30.21461 -77.87558 39119 ft 591 kts 22°
2026-05-04 08:13 30.28638 -77.82909 39119 ft 591 kts 22°
2026-05-04 08:13 30.35746 -77.78069 39120 ft 598 kts 30°
2026-05-04 08:14 30.38887 -77.74956 39159 ft 606 kts 43°
2026-05-04 08:14 30.41522 -77.71141 39133 ft 609 kts 57°
2026-05-04 08:16 30.53837 -77.34510 39127 ft 613 kts 71°
2026-05-04 08:16 30.56803 -77.25230 39126 ft 613 kts 71°
2026-05-04 08:17 30.59771 -77.15947 39124 ft 615 kts 71°
2026-05-04 08:17 30.62736 -77.06631 39124 ft 615 kts 72°
2026-05-04 08:19 30.80500 -76.79098 39130 ft 615 kts 46°
2026-05-04 08:19 30.83336 -76.75377 39129 ft 616 kts 46°
2026-05-04 08:20 30.88983 -76.67891 39131 ft 614 kts 46°
2026-05-04 08:20 30.94586 -76.60393 39137 ft 613 kts 46°
2026-05-04 08:21 31.00175 -76.52891 39135 ft 613 kts 47°
2026-05-04 08:21 31.05767 -76.45379 39142 ft 615 kts 47°
2026-05-04 08:22 31.11381 -76.37827 39138 ft 616 kts 47°
2026-05-04 08:24 31.33770 -76.07555 39162 ft 617 kts 47°
2026-05-04 08:24 31.39365 -75.99952 39143 ft 616 kts 47°
2026-05-04 08:25 31.44913 -75.92397 39146 ft 615 kts 47°
2026-05-04 08:25 31.50494 -75.84783 39151 ft 615 kts 47°
2026-05-04 08:27 31.72770 -75.54242 39151 ft 618 kts 47°
2026-05-04 08:28 31.78345 -75.46560 39191 ft 617 kts 47°
2026-05-04 08:28 31.83902 -75.38885 39146 ft 616 kts 47°
2026-05-04 08:29 31.89463 -75.31191 39154 ft 618 kts 47°
2026-05-04 08:31 32.11675 -75.00298 39157 ft 618 kts 48°
2026-05-04 08:33 32.32917 -74.70516 39157 ft 616 kts 48°
2026-05-04 08:35 32.54907 -74.39434 39158 ft 616 kts 48°
2026-05-04 08:35 32.60396 -74.31633 39157 ft 617 kts 48°
2026-05-04 08:37 32.79616 -74.04192 39162 ft 617 kts 48°
2026-05-04 08:38 32.85093 -73.96335 39161 ft 618 kts 48°
2026-05-04 08:38 32.90591 -73.88433 39205 ft 622 kts 48°
2026-05-04 08:40 33.12500 -73.56767 39199 ft 621 kts 49°
2026-05-04 08:41 33.17978 -73.48805 39165 ft 620 kts 49°
2026-05-04 08:41 33.23440 -73.40851 39167 ft 619 kts 49°
2026-05-04 08:42 33.28895 -73.32891 39175 ft 619 kts 49°
2026-05-04 08:42 33.34314 -73.24960 39188 ft 621 kts 49°
2026-05-04 08:43 33.39774 -73.16954 39171 ft 620 kts 49°
2026-05-04 08:43 33.45223 -73.08945 39173 ft 620 kts 49°
2026-05-04 08:44 33.50663 -73.00934 39169 ft 620 kts 49°
2026-05-04 08:46 33.72374 -72.68784 39180 ft 620 kts 49°
2026-05-04 08:46 33.77784 -72.60727 39178 ft 618 kts 49°
2026-05-04 08:47 33.83183 -72.52670 39182 ft 619 kts 49°
2026-05-04 08:47 33.88588 -72.44585 39178 ft 620 kts 49°
2026-05-04 08:48 33.93995 -72.36481 39169 ft 621 kts 49°
2026-05-04 08:48 33.99390 -72.28378 39182 ft 618 kts 49°
2026-05-04 08:49 34.04787 -72.20424 39173 ft 617 kts 48°
2026-05-04 08:50 34.23940 -71.92306 39176 ft 617 kts 48°
2026-05-04 08:51 34.29376 -71.84255 39176 ft 619 kts 48°
2026-05-04 08:51 34.34822 -71.76175 39175 ft 621 kts 48°
2026-05-04 08:52 34.40267 -71.68078 39176 ft 618 kts 48°
2026-05-04 08:52 34.45682 -71.60005 39173 ft 617 kts 48°
2026-05-04 08:54 34.67343 -71.27537 39170 ft 621 kts 49°
2026-05-04 08:55 34.72768 -71.19365 39169 ft 621 kts 49°
2026-05-04 08:55 34.78179 -71.11179 39177 ft 619 kts 49°
2026-05-04 09:01 35.34320 -70.25177 39206 ft 617 kts 49°
2026-05-04 09:01 35.39626 -70.16936 39155 ft 615 kts 49°
2026-05-04 09:02 35.44933 -70.08677 39162 ft 617 kts 49°
2026-05-04 09:02 35.50238 -70.00400 39156 ft 617 kts 49°
2026-05-04 09:03 35.55542 -69.92106 39160 ft 616 kts 49°
2026-05-04 09:03 35.60831 -69.83814 39140 ft 616 kts 49°
2026-05-04 09:04 35.66084 -69.75561 39156 ft 618 kts 49°
2026-05-04 09:04 35.71379 -69.67221 39211 ft 618 kts 49°
2026-05-04 09:05 35.76659 -69.58883 39155 ft 617 kts 49°
2026-05-04 09:05 35.81925 -69.50547 39142 ft 616 kts 49°
2026-05-04 09:06 35.87196 -69.42186 39158 ft 619 kts 49°
2026-05-04 09:08 36.08253 -69.08574 39197 ft 620 kts 49°
2026-05-04 09:08 36.13502 -69.00141 39142 ft 618 kts 49°
2026-05-04 09:09 36.18733 -68.91717 39140 ft 617 kts 49°
2026-05-04 09:09 36.23961 -68.83280 39140 ft 618 kts 49°
2026-05-04 09:10 36.29194 -68.74815 39147 ft 618 kts 49°
2026-05-04 09:10 36.34410 -68.66352 39152 ft 617 kts 49°
2026-05-04 09:11 36.39619 -68.57883 39148 ft 617 kts 49°
2026-05-04 09:11 36.44822 -68.49401 39147 ft 618 kts 49°
2026-05-04 09:12 36.50032 -68.40888 39144 ft 620 kts 49°
2026-05-04 09:14 36.70812 -68.06709 39140 ft 620 kts 50°
2026-05-04 09:14 36.75998 -67.98124 39141 ft 620 kts 50°
2026-05-04 09:15 36.81179 -67.89525 39146 ft 619 kts 50°
2026-05-04 09:15 36.86342 -67.80934 39135 ft 618 kts 50°
2026-05-04 09:17 37.09444 -67.42229 39130 ft 617 kts 50°
2026-05-04 09:18 37.14567 -67.33586 39135 ft 617 kts 50°
2026-05-04 09:18 37.19668 -67.24955 39127 ft 615 kts 50°
2026-05-04 09:19 37.24722 -67.16383 39124 ft 616 kts 50°
2026-05-04 09:19 37.29820 -67.07715 39142 ft 617 kts 50°
2026-05-04 09:20 37.34900 -66.99052 39124 ft 615 kts 50°
2026-05-04 09:20 37.39971 -66.90384 39122 ft 615 kts 50°
2026-05-04 09:21 37.45036 -66.81706 39122 ft 616 kts 50°
2026-05-04 09:21 37.50099 -66.73016 39116 ft 615 kts 50°
2026-05-04 09:22 37.55136 -66.64331 39115 ft 614 kts 50°
2026-05-04 09:22 37.59316 -66.57106 39097 ft 613 kts 50°
2026-05-04 09:23 37.64343 -66.48402 39109 ft 613 kts 50°
2026-05-04 09:23 37.70164 -66.38294 39107 ft 612 kts 50°
2026-05-04 09:25 37.89268 -66.04911 39097 ft 612 kts 50°
2026-05-04 09:26 37.94239 -65.96168 39137 ft 611 kts 50°
2026-05-04 09:26 37.99181 -65.87449 39095 ft 609 kts 50°
2026-05-04 09:27 38.04123 -65.78711 39102 ft 609 kts 50°
2026-05-04 09:27 38.09058 -65.69965 39100 ft 610 kts 50°
2026-05-04 09:28 38.13987 -65.61204 39067 ft 610 kts 50°
2026-05-04 09:28 38.18921 -65.52411 39099 ft 612 kts 50°
2026-05-04 09:29 38.23858 -65.43588 39099 ft 613 kts 50°
2026-05-04 09:29 38.28777 -65.34768 39094 ft 609 kts 51°
2026-05-04 09:30 38.33671 -65.25973 39081 ft 609 kts 51°
2026-05-04 09:30 38.38570 -65.17150 39088 ft 611 kts 51°
2026-05-04 09:31 38.43462 -65.08312 39088 ft 608 kts 51°
2026-05-04 09:31 38.48320 -64.99510 39087 ft 605 kts 51°
2026-05-04 09:32 38.53692 -64.91348 39081 ft 602 kts 43°
2026-05-04 09:34 38.76151 -64.60006 39068 ft 596 kts 42°
2026-05-04 09:34 38.81737 -64.52162 39066 ft 595 kts 42°
2026-05-04 09:35 38.87314 -64.44311 39107 ft 595 kts 43°
2026-05-04 09:35 38.92881 -64.36455 39061 ft 594 kts 43°
2026-05-04 09:37 39.15029 -64.05010 39045 ft 593 kts 43°
2026-05-04 09:38 39.20555 -63.97114 39043 ft 593 kts 43°
2026-05-04 09:38 39.26082 -63.89198 39036 ft 593 kts 43°
2026-05-04 09:39 39.31592 -63.81284 39034 ft 593 kts 43°
2026-05-04 09:39 39.37106 -63.73345 39000 ft 593 kts 44°
2026-05-04 09:40 39.42617 -63.65388 39026 ft 593 kts 44°
2026-05-04 09:40 39.48120 -63.57426 39023 ft 594 kts 44°
2026-05-04 09:42 39.70096 -63.25416 39009 ft 595 kts 44°
2026-05-04 09:43 39.75584 -63.17370 39010 ft 595 kts 44°
2026-05-04 09:43 39.81064 -63.09315 39004 ft 595 kts 45°
2026-05-04 09:44 39.86554 -63.01225 38999 ft 596 kts 45°
2026-05-04 09:46 40.08424 -62.68781 39000 ft 598 kts 45°
2026-05-04 09:46 40.13897 -62.60609 38981 ft 598 kts 45°
2026-05-04 09:47 40.19365 -62.52421 38955 ft 598 kts 45°
2026-05-04 09:49 40.41179 -62.19539 38949 ft 596 kts 46°
2026-05-04 09:51 40.60153 -61.90649 38919 ft 594 kts 46°
2026-05-04 09:51 40.65514 -61.82438 38957 ft 596 kts 46°
2026-05-04 09:52 40.70900 -61.74165 38934 ft 594 kts 46°
2026-05-04 09:52 40.76307 -61.65836 38928 ft 593 kts 46°
2026-05-04 09:53 40.81630 -61.57616 38921 ft 592 kts 46°
2026-05-04 09:53 40.86969 -61.49348 38917 ft 591 kts 46°
2026-05-04 09:54 40.92305 -61.41063 38920 ft 591 kts 46°
2026-05-04 09:54 40.97616 -61.32793 38873 ft 590 kts 46°
2026-05-04 09:55 41.02923 -61.24507 38903 ft 590 kts 46°
2026-05-04 09:55 41.08235 -61.16192 38899 ft 590 kts 47°
2026-05-04 09:56 41.13534 -61.07872 38898 ft 590 kts 47°
2026-05-04 09:56 41.18833 -60.99533 38902 ft 591 kts 47°
2026-05-04 09:57 41.24120 -60.91186 38887 ft 590 kts 47°
2026-05-04 09:57 41.29399 -60.82829 38881 ft 590 kts 47°
2026-05-04 09:58 41.34669 -60.74466 38877 ft 589 kts 47°
2026-05-04 09:58 41.39894 -60.66149 38868 ft 589 kts 47°
2026-05-04 10:00 41.60856 -60.32553 38860 ft 588 kts 48°
2026-05-04 10:04 41.97254 -59.73311 38844 ft 589 kts 49°
2026-05-04 10:04 42.02441 -59.64772 38823 ft 589 kts 49°
2026-05-04 10:05 42.07620 -59.56222 38820 ft 589 kts 49°
2026-05-04 10:05 42.12790 -59.47663 38818 ft 589 kts 49°
2026-05-04 10:06 42.17947 -59.39102 38810 ft 588 kts 50°
2026-05-04 10:06 42.23101 -59.30520 38803 ft 588 kts 50°
2026-05-04 10:08 42.41029 -59.00475 38779 ft 586 kts 50°
2026-05-04 10:08 42.46099 -58.91922 38780 ft 586 kts 50°
2026-05-04 10:09 42.51199 -58.83295 38789 ft 586 kts 50°
2026-05-04 10:09 42.56287 -58.74664 38775 ft 586 kts 50°
2026-05-04 10:10 42.61369 -58.66016 38775 ft 586 kts 50°
2026-05-04 10:10 42.66449 -58.57347 38773 ft 586 kts 50°
2026-05-04 10:11 42.70660 -58.50143 38768 ft 586 kts 50°
2026-05-04 10:11 42.75723 -58.41457 38759 ft 585 kts 51°
2026-05-04 10:12 42.80773 -58.32766 38750 ft 586 kts 51°
2026-05-04 10:12 42.85828 -58.24044 38744 ft 586 kts 51°
2026-05-04 10:13 42.90881 -58.15298 38744 ft 587 kts 51°
2026-05-04 10:13 42.95922 -58.06548 38745 ft 586 kts 51°
2026-05-04 10:14 43.00950 -57.97794 38736 ft 586 kts 51°
2026-05-04 10:16 43.22284 -57.72841 38720 ft 580 kts 31°
2026-05-04 10:16 43.25644 -57.69781 38703 ft 580 kts 31°
2026-05-04 10:16 43.32347 -57.63633 38700 ft 579 kts 31°
2026-05-04 10:17 43.39032 -57.57440 38700 ft 579 kts 32°
2026-05-04 10:19 43.65637 -57.32553 38672 ft 576 kts 32°
2026-05-04 10:19 43.72265 -57.26315 38663 ft 576 kts 32°
2026-05-04 10:20 43.78884 -57.20068 38650 ft 576 kts 33°
2026-05-04 10:20 43.85498 -57.13807 38644 ft 576 kts 33°
2026-05-04 10:21 43.92107 -57.07534 38644 ft 576 kts 33°
2026-05-04 10:21 43.98713 -57.01247 38644 ft 576 kts 33°
2026-05-04 10:22 44.08340 -56.91229 38641 ft 577 kts 39°
2026-05-04 10:23 44.14518 -56.84196 38630 ft 578 kts 39°
2026-05-04 10:25 44.39679 -56.56167 38617 ft 579 kts 39°
2026-05-04 10:25 44.45985 -56.49128 38608 ft 580 kts 39°
2026-05-04 10:26 44.52281 -56.42076 38601 ft 580 kts 39°
2026-05-04 10:26 44.58579 -56.35003 38594 ft 580 kts 39°
2026-05-04 10:27 44.64867 -56.27920 38591 ft 580 kts 39°
2026-05-04 10:27 44.71153 -56.20821 38576 ft 580 kts 39°
2026-05-04 10:28 44.77436 -56.13704 38577 ft 580 kts 39°
2026-05-04 10:28 44.83718 -56.06567 38578 ft 581 kts 39°
2026-05-04 10:29 44.90000 -55.99409 38572 ft 581 kts 39°
2026-05-04 10:29 44.96286 -55.92227 38576 ft 581 kts 39°
2026-05-04 10:30 45.02568 -55.85029 38611 ft 581 kts 40°
2026-05-04 10:30 45.05687 -55.81446 38830 ft 576 kts 40°
2026-05-04 10:30 45.08789 -55.77879 39084 ft 572 kts 40°
2026-05-04 10:30 45.11862 -55.74340 39339 ft 568 kts 40°
2026-05-04 10:31 45.14922 -55.70810 39620 ft 565 kts 40°
2026-05-04 10:31 45.17956 -55.67306 39898 ft 561 kts 40°
2026-05-04 10:32 45.35972 -55.46390 40549 ft 563 kts 40°
2026-05-04 10:33 45.42005 -55.39348 40555 ft 566 kts 40°
2026-05-04 10:33 45.48104 -55.32208 40554 ft 568 kts 40°
2026-05-04 10:34 45.54216 -55.25033 40548 ft 570 kts 40°
2026-05-04 10:34 45.60336 -55.17827 40548 ft 570 kts 40°
2026-05-04 10:35 45.66452 -55.10604 40551 ft 570 kts 40°
2026-05-04 10:35 45.72565 -55.03363 40561 ft 571 kts 40°
2026-05-04 10:36 45.78676 -54.96103 40553 ft 571 kts 40°
2026-05-04 10:36 45.84788 -54.88822 40555 ft 571 kts 40°
2026-05-04 10:37 45.90897 -54.81522 40552 ft 571 kts 40°
2026-05-04 10:37 45.96990 -54.74219 40554 ft 570 kts 41°
2026-05-04 10:39 46.18258 -54.48558 40556 ft 569 kts 41°
2026-05-04 10:40 46.24320 -54.41195 40551 ft 569 kts 41°
2026-05-04 10:40 46.30373 -54.33820 40551 ft 569 kts 41°
2026-05-04 10:41 46.36423 -54.26427 40558 ft 569 kts 41°
2026-05-04 10:41 46.42461 -54.19026 40553 ft 569 kts 41°
2026-05-04 10:42 46.48496 -54.11607 40556 ft 568 kts 41°
2026-05-04 10:42 46.54523 -54.04175 40554 ft 568 kts 41°
2026-05-04 10:43 46.60541 -53.96733 40553 ft 568 kts 41°
2026-05-04 10:45 46.84466 -53.66920 40559 ft 565 kts 42°
2026-05-04 10:45 46.90433 -53.59426 40539 ft 565 kts 42°
2026-05-04 10:46 46.96387 -53.51927 40560 ft 565 kts 42°
2026-05-04 10:46 47.02340 -53.44407 40558 ft 565 kts 42°
2026-05-04 10:47 47.08286 -53.36872 40542 ft 565 kts 42°
2026-05-04 10:47 47.14226 -53.29323 40542 ft 565 kts 43°
2026-05-04 10:49 47.37930 -52.98961 40540 ft 565 kts 43°
2026-05-04 10:50 47.43844 -52.91327 40537 ft 565 kts 43°
2026-05-04 10:51 47.67166 -52.69836 40542 ft 565 kts 30°
2026-05-04 10:52 47.70608 -52.67009 40543 ft 565 kts 30°
2026-05-04 10:52 47.77480 -52.61328 40545 ft 565 kts 30°
2026-05-04 10:54 48.04856 -52.38418 40558 ft 565 kts 30°
2026-05-04 10:56 48.32226 -52.15232 40570 ft 564 kts 31°
2026-05-04 10:57 48.39038 -52.09417 40579 ft 562 kts 31°
2026-05-04 10:57 48.45700 -52.03291 40585 ft 560 kts 40°
2026-05-04 10:57 48.48573 -51.99367 40584 ft 555 kts 51°
2026-05-04 10:58 48.50915 -51.94794 40585 ft 549 kts 62°
2026-05-04 10:58 48.54161 -51.84509 40585 ft 542 kts 72°
2026-05-04 10:59 48.56896 -51.73923 40579 ft 541 kts 74°
2026-05-04 10:59 48.59561 -51.63292 40602 ft 542 kts 75°
2026-05-04 11:00 48.61798 -51.54452 40609 ft 542 kts 74°
2026-05-04 11:02 48.72604 -51.11848 40621 ft 542 kts 75°
2026-05-04 11:05 48.92402 -50.31637 40678 ft 541 kts 75°
2026-05-04 11:06 48.94998 -50.20899 40680 ft 541 kts 75°
2026-05-04 11:06 48.97583 -50.10155 40684 ft 541 kts 76°
2026-05-04 11:10 49.16277 -49.34747 40727 ft 544 kts 75°
2026-05-04 11:12 49.26846 -48.91282 40752 ft 546 kts 75°
2026-05-04 11:12 49.29466 -48.80375 40763 ft 545 kts 75°
2026-05-04 11:13 49.32077 -48.69444 40762 ft 548 kts 75°
2026-05-04 11:13 49.34694 -48.58432 40781 ft 551 kts 75°
2026-05-04 11:14 49.37314 -48.47362 40790 ft 552 kts 75°
2026-05-04 11:16 49.47667 -48.03045 40823 ft 550 kts 75°
2026-05-04 11:16 49.50223 -47.91958 40831 ft 550 kts 75°
2026-05-04 11:17 49.52751 -47.80933 40824 ft 551 kts 74°
2026-05-04 11:19 49.62865 -47.36250 40864 ft 552 kts 73°
2026-05-04 11:19 49.65367 -47.25049 40884 ft 552 kts 73°
2026-05-04 11:20 49.67862 -47.13824 40884 ft 552 kts 74°
2026-05-04 11:20 49.70343 -47.02597 40892 ft 552 kts 74°
2026-05-04 11:22 49.80122 -46.57750 40915 ft 549 kts 73°
2026-05-04 11:23 49.82535 -46.46530 40930 ft 549 kts 73°
2026-05-04 11:25 49.90889 -46.07205 40952 ft 549 kts 73°
2026-05-04 11:25 49.93252 -45.95943 40958 ft 549 kts 73°
2026-05-04 11:27 50.03717 -45.45276 40980 ft 546 kts 73°
2026-05-04 11:28 50.06006 -45.34021 40980 ft 545 kts 73°
2026-05-04 11:28 50.08283 -45.22760 40991 ft 545 kts 73°
2026-05-04 11:29 50.10547 -45.11495 40992 ft 544 kts 72°
2026-05-04 11:29 50.12795 -45.00251 41004 ft 543 kts 73°
2026-05-04 11:33 50.28173 -44.21509 41051 ft 541 kts 72°
2026-05-04 11:33 50.30324 -44.10229 41061 ft 541 kts 72°
2026-05-04 11:34 50.32463 -43.98946 41059 ft 541 kts 73°
2026-05-04 11:34 50.34593 -43.87644 41073 ft 541 kts 73°
2026-05-04 11:35 50.36709 -43.76344 41085 ft 541 kts 72°
2026-05-04 11:35 50.38816 -43.65029 41080 ft 541 kts 73°
2026-05-04 11:36 50.40914 -43.53692 41089 ft 541 kts 73°
2026-05-04 11:36 50.42999 -43.42352 41089 ft 541 kts 73°
2026-05-04 11:37 50.45075 -43.30995 41110 ft 541 kts 72°
2026-05-04 11:37 50.47136 -43.19647 41113 ft 540 kts 72°
2026-05-04 11:38 50.49184 -43.08300 41113 ft 540 kts 73°
2026-05-04 11:38 50.51221 -42.96948 41121 ft 540 kts 73°
2026-05-04 11:39 50.53166 -42.86039 41121 ft 540 kts 73°
2026-05-04 11:41 50.60125 -42.46450 41154 ft 542 kts 73°
2026-05-04 11:41 50.62110 -42.34991 41159 ft 542 kts 72°
2026-05-04 11:42 50.64080 -42.23543 41165 ft 542 kts 72°
2026-05-04 11:42 50.66042 -42.12069 41165 ft 542 kts 73°
2026-05-04 11:43 50.67989 -42.00604 41178 ft 542 kts 73°
2026-05-04 11:43 50.69927 -41.89127 41202 ft 542 kts 72°
2026-05-04 11:44 50.71849 -41.77656 41188 ft 540 kts 72°
2026-05-04 11:44 50.73758 -41.66196 41198 ft 540 kts 73°
2026-05-04 11:45 50.75657 -41.54723 41204 ft 540 kts 73°
2026-05-04 11:45 50.77530 -41.43321 41213 ft 540 kts 73°
2026-05-04 11:46 50.79406 -41.31832 41218 ft 540 kts 73°
2026-05-04 11:46 50.81270 -41.20331 41214 ft 540 kts 73°
2026-05-04 11:47 50.83133 -41.08751 41223 ft 539 kts 73°
2026-05-04 11:47 50.84959 -40.97325 41225 ft 539 kts 73°
2026-05-04 11:48 50.86781 -40.85845 41231 ft 536 kts 73°
2026-05-04 11:48 50.88585 -40.74405 41238 ft 535 kts 73°
2026-05-04 11:49 50.90376 -40.62972 41241 ft 535 kts 73°
2026-05-04 11:49 50.92155 -40.51536 41251 ft 535 kts 73°
2026-05-04 11:50 50.93921 -40.40096 41251 ft 534 kts 73°
2026-05-04 11:50 50.95374 -40.30613 41259 ft 531 kts 73°
2026-05-04 11:51 50.97120 -40.19156 41266 ft 530 kts 73°
2026-05-04 11:51 50.98831 -40.07851 41271 ft 530 kts 73°
2026-05-04 11:52 51.00911 -39.96667 41298 ft 526 kts 66°
2026-05-04 11:52 51.03546 -39.85831 41280 ft 526 kts 65°
2026-05-04 11:53 51.06263 -39.75045 41283 ft 526 kts 65°
2026-05-04 11:53 51.08980 -39.64240 41289 ft 526 kts 65°
2026-05-04 11:55 51.19715 -39.20718 41298 ft 529 kts 65°
2026-05-04 11:56 51.22378 -39.09777 41317 ft 529 kts 65°
2026-05-04 11:56 51.25038 -38.98799 41309 ft 531 kts 65°
2026-05-04 11:57 51.27689 -38.87800 41318 ft 531 kts 65°
2026-05-04 11:57 51.30333 -38.76775 41319 ft 531 kts 65°
2026-05-04 11:58 51.32966 -38.65740 41341 ft 531 kts 65°
2026-05-04 11:58 51.35586 -38.54700 41333 ft 530 kts 65°
2026-05-04 11:59 51.38174 -38.43740 41330 ft 530 kts 65°
2026-05-04 11:59 51.40768 -38.32703 41338 ft 530 kts 65°
2026-05-04 12:00 51.43351 -38.21656 41368 ft 530 kts 65°
2026-05-04 12:00 51.45923 -38.10596 41346 ft 528 kts 65°
2026-05-04 12:01 51.48476 -37.99560 41349 ft 528 kts 66°
2026-05-04 12:02 51.57329 -37.60853 41357 ft 528 kts 66°
2026-05-04 12:03 51.59836 -37.49758 41360 ft 528 kts 66°
2026-05-04 12:03 51.62333 -37.38652 41360 ft 528 kts 66°
2026-05-04 12:04 51.64822 -37.27523 41369 ft 528 kts 66°
2026-05-04 12:04 51.67300 -37.16383 41365 ft 529 kts 67°
2026-05-04 12:05 51.69770 -37.05219 41373 ft 529 kts 67°
2026-05-04 12:05 51.72212 -36.94119 41375 ft 529 kts 67°
2026-05-04 12:06 51.74660 -36.82934 41371 ft 529 kts 67°
2026-05-04 12:06 51.77099 -36.71729 41379 ft 529 kts 67°
2026-05-04 12:07 51.79528 -36.60513 41379 ft 529 kts 67°
2026-05-04 12:07 51.81945 -36.49283 41382 ft 529 kts 67°
2026-05-04 12:08 51.84351 -36.38050 41388 ft 529 kts 68°
2026-05-04 12:08 51.86747 -36.26798 41384 ft 529 kts 68°
2026-05-04 12:09 51.89132 -36.15537 41387 ft 529 kts 68°
2026-05-04 12:09 51.91506 -36.04263 41387 ft 529 kts 68°
2026-05-04 12:10 51.93867 -35.92990 41395 ft 528 kts 68°
2026-05-04 12:10 51.96215 -35.81714 41393 ft 528 kts 68°
2026-05-04 12:11 51.98552 -35.70429 41394 ft 528 kts 69°
2026-05-04 12:11 52.00878 -35.59132 41397 ft 528 kts 69°
2026-05-04 12:12 52.03193 -35.47827 41407 ft 528 kts 69°
2026-05-04 12:12 52.05495 -35.36514 41400 ft 527 kts 69°
2026-05-04 12:14 52.14583 -34.91224 41409 ft 527 kts 70°
2026-05-04 12:15 52.16829 -34.79866 41412 ft 527 kts 70°
2026-05-04 12:15 52.19065 -34.68489 41411 ft 527 kts 70°
2026-05-04 12:16 52.21290 -34.57108 41428 ft 527 kts 70°
2026-05-04 12:16 52.23502 -34.45720 41413 ft 527 kts 70°
2026-05-04 12:17 52.25702 -34.34330 41420 ft 526 kts 70°
2026-05-04 12:17 52.27891 -34.22926 41418 ft 526 kts 70°
2026-05-04 12:18 52.30069 -34.11508 41417 ft 527 kts 70°
2026-05-04 12:18 52.32237 -34.00079 41423 ft 526 kts 71°
2026-05-04 12:19 52.34390 -33.88660 41428 ft 526 kts 71°
2026-05-04 12:19 52.36531 -33.77230 41426 ft 526 kts 71°
2026-05-04 12:20 52.38663 -33.65782 41425 ft 526 kts 71°
2026-05-04 12:20 52.40768 -33.54411 41429 ft 525 kts 71°
2026-05-04 12:21 52.42876 -33.42948 41426 ft 525 kts 71°
2026-05-04 12:21 52.44972 -33.31484 41427 ft 525 kts 71°
2026-05-04 12:22 52.47058 -33.19999 41430 ft 525 kts 71°
2026-05-04 12:22 52.49133 -33.08504 41430 ft 525 kts 72°
2026-05-04 12:23 52.51195 -32.97009 41428 ft 525 kts 72°
2026-05-04 12:23 52.53245 -32.85506 41431 ft 525 kts 72°
2026-05-04 12:24 52.55284 -32.73995 41431 ft 525 kts 72°
2026-05-04 12:24 52.57299 -32.62542 41440 ft 525 kts 72°
2026-05-04 12:25 52.59315 -32.51015 41428 ft 524 kts 72°
2026-05-04 12:25 52.61319 -32.39477 41430 ft 524 kts 72°
2026-05-04 12:26 52.63311 -32.27934 41433 ft 524 kts 72°
2026-05-04 12:26 52.65293 -32.16374 41430 ft 524 kts 72°
2026-05-04 12:27 52.67265 -32.04795 41434 ft 525 kts 72°
2026-05-04 12:27 52.69225 -31.93214 41422 ft 524 kts 73°
2026-05-04 12:28 52.71159 -31.81708 41430 ft 524 kts 73°
2026-05-04 12:28 52.73093 -31.70123 41442 ft 524 kts 73°
2026-05-04 12:29 52.75018 -31.58519 41429 ft 524 kts 73°
2026-05-04 12:29 52.76927 -31.46928 41426 ft 524 kts 73°
2026-05-04 12:30 52.78827 -31.35313 41437 ft 524 kts 73°
2026-05-04 12:30 52.80717 -31.23679 41430 ft 524 kts 73°
2026-05-04 12:31 52.82596 -31.12038 41439 ft 524 kts 73°
2026-05-04 12:31 52.84462 -31.00388 41434 ft 524 kts 73°
2026-05-04 12:32 52.87239 -30.82911 41434 ft 524 kts 74°
2026-05-04 12:33 52.89075 -30.71246 41431 ft 524 kts 74°
2026-05-04 12:33 52.90889 -30.59647 41425 ft 523 kts 74°
2026-05-04 12:34 52.92701 -30.47974 41423 ft 523 kts 74°
2026-05-04 12:34 52.94503 -30.36281 41432 ft 523 kts 74°
2026-05-04 12:35 52.96292 -30.24592 41418 ft 523 kts 74°
2026-05-04 12:35 52.98071 -30.12883 41427 ft 523 kts 75°
2026-05-04 12:36 52.99836 -30.01176 41429 ft 523 kts 75°
2026-05-04 12:36 53.01565 -29.89446 41426 ft 523 kts 75°
2026-05-04 12:37 53.03240 -29.77672 41423 ft 523 kts 75°
2026-05-04 12:37 53.04902 -29.65914 41427 ft 522 kts 75°
2026-05-04 12:38 53.06558 -29.54161 41424 ft 522 kts 75°
2026-05-04 12:38 53.08207 -29.42393 41424 ft 522 kts 76°
2026-05-04 12:39 53.09845 -29.30617 41423 ft 522 kts 76°
2026-05-04 12:39 53.11197 -29.20821 41425 ft 522 kts 76°
2026-05-04 12:40 53.12810 -29.09054 41419 ft 522 kts 76°
2026-05-04 12:40 53.14671 -28.95354 41419 ft 522 kts 76°
2026-05-04 12:41 53.16259 -28.83562 41420 ft 522 kts 76°
2026-05-04 12:41 53.17581 -28.73673 41425 ft 522 kts 76°
2026-05-04 12:42 53.19147 -28.61871 41414 ft 521 kts 76°
2026-05-04 12:42 53.20700 -28.50071 41414 ft 521 kts 76°
2026-05-04 12:43 53.22240 -28.38273 41414 ft 521 kts 76°
2026-05-04 12:43 53.23759 -28.26536 41414 ft 521 kts 76°
2026-05-04 12:44 53.25287 -28.14633 41415 ft 520 kts 77°
2026-05-04 12:44 53.26782 -28.02886 41414 ft 520 kts 77°
2026-05-04 12:45 53.28275 -27.91055 41411 ft 520 kts 77°
2026-05-04 12:45 53.29755 -27.79231 41411 ft 520 kts 77°
2026-05-04 12:46 53.31223 -27.67400 41408 ft 520 kts 77°
2026-05-04 12:46 53.32678 -27.55566 41405 ft 519 kts 77°
2026-05-04 12:47 53.34119 -27.43739 41402 ft 518 kts 77°
2026-05-04 12:47 53.35547 -27.31924 41403 ft 518 kts 77°
2026-05-04 12:48 53.36963 -27.20101 41400 ft 518 kts 77°
2026-05-04 12:48 53.38367 -27.08272 41400 ft 518 kts 77°
2026-05-04 12:49 53.39761 -26.96422 41398 ft 518 kts 77°
2026-05-04 12:49 53.41142 -26.84574 41398 ft 518 kts 78°
2026-05-04 12:50 53.42503 -26.72795 41399 ft 518 kts 78°
2026-05-04 12:50 53.43860 -26.60939 41398 ft 518 kts 78°
2026-05-04 12:51 53.45204 -26.49082 41395 ft 517 kts 78°
2026-05-04 12:51 53.46537 -26.37215 41395 ft 517 kts 78°
2026-05-04 12:52 53.47858 -26.25341 41392 ft 517 kts 78°
2026-05-04 12:52 53.49166 -26.13471 41394 ft 517 kts 78°
2026-05-04 12:53 53.50464 -26.01583 41392 ft 517 kts 78°
2026-05-04 12:53 53.51749 -25.89698 41390 ft 517 kts 78°
2026-05-04 12:54 53.53022 -25.77803 41384 ft 517 kts 78°
2026-05-04 12:54 53.54282 -25.65910 41394 ft 517 kts 78°
2026-05-04 12:55 53.55531 -25.54007 41381 ft 516 kts 79°
2026-05-04 12:55 53.56767 -25.42104 41382 ft 516 kts 79°
2026-05-04 12:56 53.57989 -25.30214 41381 ft 516 kts 79°
2026-05-04 12:56 53.59199 -25.18323 41375 ft 515 kts 79°
2026-05-04 12:57 53.60398 -25.06426 41375 ft 515 kts 79°
2026-05-04 12:57 53.61576 -24.94606 41373 ft 515 kts 79°
2026-05-04 12:58 53.62749 -24.82712 41371 ft 515 kts 79°
2026-05-04 12:58 53.63912 -24.70794 41371 ft 515 kts 79°
2026-05-04 12:59 53.65063 -24.58873 41370 ft 515 kts 79°
2026-05-04 12:59 53.66202 -24.46941 41365 ft 515 kts 79°
2026-05-04 13:00 53.67328 -24.35015 41363 ft 515 kts 79°
2026-05-04 13:00 53.68444 -24.23069 41366 ft 515 kts 80°
2026-05-04 13:01 53.69548 -24.11113 41362 ft 515 kts 80°
2026-05-04 13:01 53.70640 -23.99148 41357 ft 515 kts 80°
2026-05-04 13:02 53.71720 -23.87188 41357 ft 516 kts 80°
2026-05-04 13:02 53.72788 -23.75221 41349 ft 516 kts 80°
2026-05-04 13:03 53.73845 -23.63234 41349 ft 516 kts 80°
2026-05-04 13:03 53.74882 -23.51325 41348 ft 516 kts 80°
2026-05-04 13:04 53.75915 -23.39330 41346 ft 516 kts 80°
2026-05-04 13:04 53.76937 -23.27323 41343 ft 516 kts 81°
2026-05-04 13:05 53.77945 -23.15317 41338 ft 516 kts 81°
2026-05-04 13:05 53.78943 -23.03293 41346 ft 516 kts 81°
2026-05-04 13:06 53.79929 -22.91268 41331 ft 516 kts 81°
2026-05-04 13:06 53.80902 -22.79234 41331 ft 516 kts 81°
2026-05-04 13:07 53.81864 -22.67192 41331 ft 516 kts 81°
2026-05-04 13:07 53.82808 -22.55221 41331 ft 516 kts 81°
2026-05-04 13:08 53.83745 -22.43173 41320 ft 517 kts 81°
2026-05-04 13:08 53.84671 -22.31105 41322 ft 517 kts 81°
2026-05-04 13:09 53.85586 -22.19028 41319 ft 517 kts 81°
2026-05-04 13:09 53.86489 -22.06935 41319 ft 517 kts 82°
2026-05-04 13:10 53.87379 -21.94850 41317 ft 517 kts 82°
2026-05-04 13:10 53.88257 -21.82760 41316 ft 517 kts 82°
2026-05-04 13:11 53.89123 -21.70664 41318 ft 517 kts 82°
2026-05-04 13:11 53.89977 -21.58562 41314 ft 517 kts 82°
2026-05-04 13:12 53.90819 -21.46442 41323 ft 517 kts 82°
2026-05-04 13:12 53.91649 -21.34328 41307 ft 517 kts 82°
2026-05-04 13:13 53.92467 -21.22203 41308 ft 517 kts 82°
2026-05-04 13:13 53.93272 -21.10080 41305 ft 517 kts 82°
2026-05-04 13:14 53.94059 -20.98033 41300 ft 517 kts 82°
2026-05-04 13:14 53.94841 -20.85887 41302 ft 517 kts 82°
2026-05-04 13:15 53.95609 -20.73764 41291 ft 517 kts 82°
2026-05-04 13:15 53.96365 -20.61627 41291 ft 517 kts 83°
2026-05-04 13:16 53.97109 -20.49483 41290 ft 517 kts 83°
2026-05-04 13:16 53.97841 -20.37337 41293 ft 517 kts 83°
2026-05-04 13:17 53.98559 -20.25196 41282 ft 517 kts 83°
2026-05-04 13:17 53.99265 -20.13052 41279 ft 517 kts 83°
2026-05-04 13:18 53.99960 -20.00900 41278 ft 516 kts 83°
2026-05-04 13:18 54.00422 -19.88785 41272 ft 517 kts 87°
2026-05-04 13:19 54.00571 -19.76557 41275 ft 517 kts 88°
2026-05-04 13:19 54.00716 -19.64331 41267 ft 517 kts 88°
2026-05-04 13:20 54.00902 -19.52106 41267 ft 517 kts 87°
2026-05-04 13:20 54.01102 -19.39876 41263 ft 517 kts 87°
2026-05-04 13:21 54.01293 -19.27647 41267 ft 518 kts 88°
2026-05-04 13:21 54.01469 -19.15417 41265 ft 517 kts 88°
2026-05-04 13:22 54.01630 -19.03186 41249 ft 517 kts 88°
2026-05-04 13:22 54.01779 -18.90960 41255 ft 517 kts 88°
2026-05-04 13:23 54.01916 -18.78747 41251 ft 517 kts 88°
2026-05-04 13:23 54.02040 -18.66530 41245 ft 517 kts 88°
2026-05-04 13:24 54.02152 -18.54300 41252 ft 517 kts 88°
2026-05-04 13:24 54.02252 -18.42066 41252 ft 517 kts 88°
2026-05-04 13:25 54.02378 -18.23737 41244 ft 517 kts 88°
2026-05-04 13:25 54.02446 -18.11514 41234 ft 517 kts 88°
2026-05-04 13:26 54.02502 -17.99283 41233 ft 517 kts 88°
2026-05-04 13:26 54.02546 -17.87059 41228 ft 517 kts 88°
2026-05-04 13:27 54.02578 -17.74914 41223 ft 517 kts 89°
2026-05-04 13:27 54.02597 -17.62682 41242 ft 517 kts 89°
2026-05-04 13:28 54.02604 -17.50459 41219 ft 517 kts 89°
2026-05-04 13:28 54.02598 -17.38235 41230 ft 516 kts 89°
2026-05-04 13:29 54.02580 -17.26010 41222 ft 517 kts 89°
2026-05-04 13:29 54.02555 -17.15858 41213 ft 517 kts 89°
2026-05-04 13:30 54.02514 -17.03635 41219 ft 516 kts 89°
2026-05-04 13:30 54.02461 -16.91456 41207 ft 515 kts 89°
2026-05-04 13:31 54.02396 -16.79272 41209 ft 515 kts 89°
2026-05-04 13:31 54.02318 -16.67088 41205 ft 515 kts 90°
2026-05-04 13:32 54.02228 -16.54908 41210 ft 515 kts 90°
2026-05-04 13:32 54.02126 -16.42718 41195 ft 516 kts 90°
2026-05-04 13:33 54.02011 -16.30524 41203 ft 515 kts 90°
2026-05-04 13:33 54.01884 -16.18331 41195 ft 515 kts 90°
2026-05-04 13:34 54.01745 -16.06153 41197 ft 515 kts 90°
2026-05-04 13:34 54.01593 -15.93974 41193 ft 515 kts 90°
2026-05-04 13:35 54.01344 -15.75810 41194 ft 514 kts 90°
2026-05-04 13:36 54.01162 -15.63649 41192 ft 514 kts 91°
2026-05-04 13:36 54.00968 -15.51497 41189 ft 514 kts 91°
2026-05-04 13:37 54.00762 -15.39347 41186 ft 513 kts 91°
2026-05-04 13:37 54.00544 -15.27244 41184 ft 512 kts 91°
2026-05-04 13:38 54.00314 -15.15154 41184 ft 512 kts 91°
2026-05-04 13:38 54.00072 -15.03068 41182 ft 512 kts 91°
2026-05-04 13:39 53.99921 -14.90987 41186 ft 511 kts 89°
2026-05-04 13:39 54.00001 -14.78896 41181 ft 511 kts 88°
2026-05-04 13:40 54.00083 -14.66818 41177 ft 511 kts 89°
2026-05-04 13:40 54.00115 -14.54743 41175 ft 511 kts 89°
2026-05-04 13:41 54.00115 -14.42663 41172 ft 511 kts 89°
2026-05-04 13:41 54.00099 -14.30591 41175 ft 511 kts 89°
2026-05-04 13:42 54.00055 -14.12561 41173 ft 511 kts 90°
2026-05-04 13:42 54.00011 -14.00491 41170 ft 511 kts 90°
2026-05-04 13:43 53.99866 -13.88423 41170 ft 511 kts 91°
2026-05-04 13:43 53.99584 -13.76359 41169 ft 511 kts 92°
2026-05-04 13:44 53.99295 -13.64300 41170 ft 510 kts 91°
2026-05-04 13:44 53.99018 -13.52244 41161 ft 510 kts 91°
2026-05-04 13:45 53.98739 -13.40217 41164 ft 509 kts 91°
2026-05-04 13:45 53.98450 -13.28201 41164 ft 509 kts 91°
2026-05-04 13:46 53.98148 -13.16206 41161 ft 507 kts 91°
2026-05-04 13:46 53.97835 -13.04240 41160 ft 506 kts 92°
2026-05-04 13:47 53.97510 -12.92284 41156 ft 506 kts 91°
2026-05-04 13:47 53.97176 -12.80401 41158 ft 506 kts 92°
2026-05-04 13:48 53.96827 -12.68454 41159 ft 506 kts 92°
2026-05-04 13:48 53.96467 -12.56519 41157 ft 506 kts 92°
2026-05-04 13:49 53.96095 -12.44600 41157 ft 506 kts 92°
2026-05-04 13:49 53.95712 -12.32683 41153 ft 505 kts 92°
2026-05-04 13:50 53.95317 -12.20767 41149 ft 505 kts 92°
2026-05-04 13:50 53.94910 -12.08853 41153 ft 505 kts 92°
2026-05-04 13:51 53.94492 -11.96966 41144 ft 504 kts 92°
2026-05-04 13:51 53.94063 -11.85097 41151 ft 504 kts 92°
2026-05-04 13:52 53.93398 -11.67291 41146 ft 504 kts 93°
2026-05-04 13:53 53.92940 -11.55429 41144 ft 502 kts 92°
2026-05-04 13:53 53.92471 -11.43614 41138 ft 501 kts 93°
2026-05-04 13:54 53.91752 -11.26012 41139 ft 501 kts 93°
2026-05-04 13:55 53.91005 -11.08345 41145 ft 501 kts 93°
2026-05-04 13:55 53.90230 -10.90669 41137 ft 501 kts 93°
2026-05-04 13:56 53.89700 -10.78890 41138 ft 501 kts 93°
2026-05-04 13:57 53.88883 -10.61237 41145 ft 501 kts 94°
2026-05-04 13:58 53.87752 -10.37696 41134 ft 501 kts 94°
2026-05-04 13:58 53.86879 -10.20136 41140 ft 501 kts 94°
2026-05-04 13:59 53.86279 -10.08366 41134 ft 501 kts 94°
2026-05-04 14:00 53.85358 -9.90732 41132 ft 501 kts 94°
2026-05-04 14:00 53.84410 -9.73096 41132 ft 500 kts 94°
2026-05-04 14:01 53.83766 -9.61380 41116 ft 499 kts 94°
2026-05-04 14:02 53.82782 -9.43854 41113 ft 499 kts 94°
2026-05-04 14:02 53.82111 -9.32170 41111 ft 499 kts 94°
2026-05-04 14:03 53.81428 -9.20478 41104 ft 499 kts 94°
2026-05-04 14:03 53.80733 -9.08786 41110 ft 499 kts 94°
2026-05-04 14:04 53.79675 -8.91342 41104 ft 499 kts 95°
2026-05-04 14:04 53.78953 -8.79672 41098 ft 499 kts 95°
2026-05-04 14:05 53.77846 -8.62148 41093 ft 500 kts 95°
2026-05-04 14:06 53.77094 -8.50464 41092 ft 500 kts 95°
2026-05-04 14:06 53.76331 -8.38785 41080 ft 500 kts 95°
2026-05-04 14:07 53.75556 -8.27103 41081 ft 500 kts 95°
2026-05-04 14:07 53.74769 -8.15423 41080 ft 501 kts 95°
2026-05-04 14:08 53.73970 -8.03738 41078 ft 501 kts 95°
2026-05-04 14:08 53.73160 -7.92064 41073 ft 501 kts 95°
2026-05-04 14:09 53.71925 -7.74568 41072 ft 500 kts 96°
2026-05-04 14:10 53.70669 -7.57158 41071 ft 500 kts 96°
2026-05-04 14:10 53.69815 -7.45511 41070 ft 500 kts 96°
2026-05-04 14:11 53.68949 -7.33864 41067 ft 500 kts 96°
2026-05-04 14:11 53.67630 -7.16406 41066 ft 500 kts 96°
2026-05-04 14:12 53.66735 -7.04761 41068 ft 500 kts 96°
2026-05-04 14:13 53.65372 -6.87315 41067 ft 500 kts 96°
2026-05-04 14:13 53.64450 -6.75690 41070 ft 500 kts 96°
2026-05-04 14:14 53.63516 -6.64068 41066 ft 501 kts 97°
2026-05-04 14:14 53.62093 -6.46630 41067 ft 501 kts 97°
2026-05-04 14:15 53.60156 -6.23403 41072 ft 501 kts 97°
2026-05-04 14:16 53.58674 -6.06000 41075 ft 501 kts 97°
2026-05-04 14:17 53.57250 -5.89554 41083 ft 501 kts 97°
2026-05-04 14:18 53.55920 -5.74439 41078 ft 501 kts 97°
2026-05-04 14:19 53.53906 -5.51615 41085 ft 495 kts 95°
2026-05-04 14:19 53.53663 -5.46069 40928 ft 487 kts 92°
2026-05-04 14:19 53.53481 -5.40413 40462 ft 483 kts 92°
2026-05-04 14:19 53.53329 -5.34776 39790 ft 483 kts 91°
2026-05-04 14:20 53.53192 -5.29145 39126 ft 482 kts 91°
2026-05-04 14:20 53.53057 -5.23518 38404 ft 482 kts 91°
2026-05-04 14:20 53.52922 -5.17980 37617 ft 480 kts 91°
2026-05-04 14:21 53.52621 -5.06813 36060 ft 476 kts 91°
2026-05-04 14:21 53.52445 -5.01273 35326 ft 473 kts 92°
2026-05-04 14:21 53.52262 -4.95774 34609 ft 469 kts 92°
2026-05-04 14:21 53.52078 -4.90328 33877 ft 465 kts 92°
2026-05-04 14:22 53.51895 -4.84925 33080 ft 462 kts 91°
2026-05-04 14:22 53.51710 -4.79547 32314 ft 459 kts 91°
2026-05-04 14:22 53.51529 -4.74215 31553 ft 456 kts 91°
2026-05-04 14:22 53.51349 -4.68918 30822 ft 453 kts 90°
2026-05-04 14:23 53.50989 -4.58403 29271 ft 447 kts 90°
2026-05-04 14:23 53.50808 -4.53210 28476 ft 445 kts 91°
2026-05-04 14:23 53.50626 -4.48048 27705 ft 442 kts 91°
2026-05-04 14:24 53.50442 -4.42901 26940 ft 440 kts 91°
2026-05-04 14:24 53.50256 -4.37780 26203 ft 437 kts 91°
2026-05-04 14:24 53.50069 -4.32708 25524 ft 433 kts 91°
2026-05-04 14:24 53.49884 -4.27760 24944 ft 428 kts 92°
2026-05-04 14:25 53.49694 -4.22730 24341 ft 424 kts 92°
2026-05-04 14:25 53.49317 -4.12896 23100 ft 420 kts 92°
2026-05-04 14:25 53.49127 -4.08013 22420 ft 417 kts 93°
2026-05-04 14:26 53.48939 -4.03233 21759 ft 414 kts 93°
2026-05-04 14:26 53.48679 -3.98440 21113 ft 412 kts 97°
2026-05-04 14:26 53.48051 -3.93756 20480 ft 410 kts 105°
2026-05-04 14:26 53.47190 -3.89217 19860 ft 407 kts 108°
2026-05-04 14:27 53.46284 -3.84722 19249 ft 405 kts 108°
2026-05-04 14:27 53.45374 -3.80280 18645 ft 402 kts 108°
2026-05-04 14:27 53.44461 -3.75857 18010 ft 400 kts 109°
2026-05-04 14:27 53.43551 -3.71463 17352 ft 397 kts 109°
2026-05-04 14:28 53.42643 -3.67098 16702 ft 395 kts 109°
2026-05-04 14:28 53.41758 -3.62768 16059 ft 392 kts 107°
2026-05-04 14:28 53.41224 -3.58306 15434 ft 389 kts 96°
2026-05-04 14:28 53.40994 -3.53800 14817 ft 387 kts 94°
2026-05-04 14:29 53.40621 -3.44798 13574 ft 383 kts 94°
2026-05-04 14:29 53.40234 -3.35967 12264 ft 377 kts 94°
2026-05-04 14:30 53.40040 -3.31665 11648 ft 374 kts 94°
2026-05-04 14:30 53.39843 -3.27344 11027 ft 370 kts 94°
2026-05-04 14:30 53.39448 -3.18820 9805 ft 365 kts 94°
2026-05-04 14:31 53.39369 -3.14599 9132 ft 361 kts 84°
2026-05-04 14:31 53.41297 -3.07051 7859 ft 350 kts 58°
2026-05-04 14:32 53.43775 -3.00153 7024 ft 343 kts 59°
2026-05-04 14:32 53.45006 -2.96661 6965 ft 351 kts 59°
2026-05-04 14:32 53.46243 -2.93113 6978 ft 353 kts 59°
2026-05-04 14:32 53.47480 -2.89547 6979 ft 353 kts 59°
2026-05-04 14:33 53.48239 -2.87354 6976 ft 353 kts 59°
2026-05-04 14:33 53.49052 -2.85001 6977 ft 352 kts 59°
2026-05-04 14:33 53.50282 -2.81431 6970 ft 352 kts 59°
2026-05-04 14:33 53.51505 -2.77875 6964 ft 352 kts 60°
2026-05-04 14:34 53.52731 -2.74303 6975 ft 353 kts 59°
2026-05-04 14:34 53.53957 -2.70726 6975 ft 352 kts 59°
2026-05-04 14:34 53.55178 -2.67159 6972 ft 352 kts 59°
2026-05-04 14:34 53.56390 -2.63615 6832 ft 349 kts 60°
2026-05-04 14:35 53.57607 -2.60064 6386 ft 350 kts 60°
2026-05-04 14:35 53.58796 -2.56599 5897 ft 349 kts 60°
2026-05-04 14:35 53.60000 -2.53077 5424 ft 346 kts 60°
2026-05-04 14:35 53.61195 -2.49566 5067 ft 343 kts 60°
2026-05-04 14:36 53.62268 -2.45978 4980 ft 343 kts 69°
2026-05-04 14:36 53.62879 -2.42111 4975 ft 342 kts 79°
2026-05-04 14:36 53.63299 -2.38176 4975 ft 342 kts 80°
2026-05-04 14:36 53.63698 -2.34278 4816 ft 330 kts 80°
2026-05-04 14:37 53.64073 -2.30572 4491 ft 314 kts 80°
2026-05-04 14:37 53.64439 -2.26950 3892 ft 312 kts 80°
2026-05-04 14:37 53.64804 -2.23355 3544 ft 314 kts 80°
2026-05-04 14:37 53.65176 -2.19711 3470 ft 315 kts 80°
2026-05-04 14:38 53.65546 -2.16070 3473 ft 315 kts 80°
2026-05-04 14:38 53.65916 -2.12438 3475 ft 314 kts 80°
2026-05-04 14:38 53.66167 -2.08791 3468 ft 315 kts 91°
2026-05-04 14:38 53.65696 -2.05249 3482 ft 301 kts 114°
2026-05-04 14:39 53.64760 -2.02241 3481 ft 279 kts 120°
2026-05-04 14:39 53.63792 -1.99476 3481 ft 272 kts 121°
2026-05-04 14:39 53.62819 -1.96731 3478 ft 273 kts 121°
2026-05-04 14:40 53.60241 -1.92796 3485 ft 235 kts 159°
2026-05-04 14:40 53.58706 -1.92374 3474 ft 216 kts 187°
2026-05-04 14:40 53.57314 -1.93089 3486 ft 207 kts 204°
2026-05-04 14:40 53.56002 -1.94098 3476 ft 208 kts 206°
2026-05-04 14:41 53.54696 -1.95135 3475 ft 208 kts 206°
2026-05-04 14:41 53.53382 -1.96173 3478 ft 212 kts 205°
2026-05-04 14:41 53.50736 -1.98245 3475 ft 208 kts 206°
2026-05-04 14:42 53.48276 -2.00672 3489 ft 206 kts 229°
2026-05-04 14:42 53.47405 -2.02576 3484 ft 204 kts 235°
2026-05-04 14:42 53.46579 -2.04411 3482 ft 189 kts 231°
2026-05-04 14:43 53.45758 -2.06087 3408 ft 184 kts 231°
2026-05-04 14:43 53.44949 -2.07748 3132 ft 185 kts 232°
2026-05-04 14:43 53.44138 -2.09430 2847 ft 186 kts 231°
2026-05-04 14:43 53.43324 -2.11113 2589 ft 186 kts 231°
2026-05-04 14:44 53.42515 -2.12784 2337 ft 183 kts 231°
2026-05-04 14:44 53.41714 -2.14437 2086 ft 183 kts 231°
2026-05-04 14:44 53.40911 -2.16095 1842 ft 184 kts 230°
2026-05-04 14:44 53.40105 -2.17758 1575 ft 183 kts 231°
2026-05-04 14:45 53.39302 -2.19414 1330 ft 183 kts 231°
2026-05-04 14:45 53.38501 -2.21066 1059 ft 182 kts 231°
2026-05-04 14:45 53.37707 -2.22701 805 ft 180 kts 231°
2026-05-04 14:45 53.36920 -2.24323 557 ft 175 kts 231°
2026-05-04 14:46 53.36167 -2.25859 308 ft 166 kts 230°
2026-05-04 14:46 53.35492 -2.27241 256 ft 143 kts 231°
2026-05-04 14:46 53.35021 -2.28229 238 ft 61 kts 231°
2026-05-04 14:46 53.34946 -2.28595 238 ft 28 kts 260°
2026-05-04 14:47 53.34943 -2.28661 237 ft 1 kts 270°
2026-05-04 14:47 53.34948 -2.28704 236 ft 9 kts 294°
2026-05-04 14:47 53.35045 -2.28677 238 ft 18 kts 45°
2026-05-04 14:47 53.35133 -2.28502 236 ft 22 kts 51°
2026-05-04 14:48 53.35234 -2.28297 238 ft 23 kts 45°
2026-05-04 14:48 53.35379 -2.28171 242 ft 24 kts
2026-05-04 14:48 53.35534 -2.28073 241 ft 25 kts 43°
2026-05-04 14:48 53.35661 -2.27890 249 ft 22 kts 12°
2026-05-04 14:49 53.35739 -2.27878 253 ft 0 kts
2026-05-04 14:50 53.35780 -2.27871 255 ft 12 kts
2026-05-04 14:50 53.35890 -2.27851 261 ft 19 kts
2026-05-04 14:50 53.36022 -2.27946 261 ft 24 kts 317°
2026-05-04 14:51 53.36159 -2.28154 261 ft 28 kts 315°
2026-05-04 14:51 53.36302 -2.28397 261 ft 31 kts 314°
2026-05-04 14:51 53.36455 -2.28547 261 ft 25 kts 316°
2026-05-04 14:51 53.36581 -2.28776 261 ft 27 kts 301°
2026-05-04 14:52 53.36703 -2.29012 261 ft 26 kts 314°
2026-05-04 14:52 53.36799 -2.29074 261 ft 17 kts 11°
2026-05-04 14:52 53.36817 -2.29048 261 ft 5 kts 65°
2026-05-04 14:52 53.36802 -2.28981 261 ft 9 kts 122°
2026-05-04 14:53 53.36783 -2.28944 261 ft 4 kts 133°
2026-05-04 14:53 53.36771 -2.28922 261 ft 1 kts 134°
2026-05-04 14:53 53.36769 -2.28919 261 ft 0 kts 133°
2026-05-04 14:53 53.36769 -2.28917 261 ft 0 kts 133°